Regional Weather Roundup
Issued by NWS

Home | Current Version | Previous Version | Text Only | Print | Product List | Glossary On
Versions: 1 2 3 4 5 6 7 8 9 10 11 12 13 14 15 16 17 18 19 20 21 22 23 24 25 26 27 28 29 30 31 32 33 34 35 36 37 38 39 40 41 42 43 44 45 46 47 48 49 50
000
ASUS43 KTOP 200408
RWRKS

WEATHER ROUNDUP FOR KANSAS
NATIONAL WEATHER SERVICE GOODLAND KS
1000 PM CST SUN FEB 19 2017

NOTE:  "FAIR" INDICATES FEW OR NO CLOUDS BELOW 12,000 FEET WITH NO
SIGNIFICANT WEATHER AND/OR OBSTRUCTIONS TO VISIBILITY.

KSZ001>006-013>018-027>032-041>047-200500-
NORTHWEST KANSAS

CITY           SKY/WX    TMP DP  RH WIND       PRES   REMARKS
GOODLAND       MOCLDY    55  31  39 S20       29.67R
HAYS           PTCLDY    57  54  89 S18       29.77S
HILL CITY      PTCLDY    56  54  93 S13G18    29.74S
RUSSELL        CLOUDY    58  55  90 S18       29.77S
$$

KSZ061>065-074>080-084>089-200500-
SOUTHWEST KANSAS

CITY           SKY/WX    TMP DP  RH WIND       PRES   REMARKS
DODGE CITY     MOCLDY    54  45  71 SE9       29.76F
ELKHART          N/A     50  33  52 S9          N/A
GARDEN CITY    CLOUDY    58  35  42 SW15      29.75S
GREAT BEND     CLOUDY    58  55  90 SE14      29.79S
LIBERAL        PTCLDY    55  37  50 S12       29.77S
PRATT          CLOUDY    56  55  94 SE10      29.81S
$$

KSZ066>073-081>083-090>101-200500-
SOUTHEAST KANSAS

CITY           SKY/WX    TMP DP  RH WIND       PRES   REMARKS
CHANUTE        CLOUDY    62  56  80 E9        29.87F
COFFEYVILLE    MOCLDY    63  57  81 SE8       29.87F
HUTCHINSON     LGT RAIN  60  58  92 SE16      29.80F FOG
MEDICINE LODGE   N/A     59  58  96 S5        29.80F
NEWTON         CLOUDY    61  57  87 SE12      29.84S
PARSONS        CLOUDY    64  56  75 SE6       29.87F
WICHITA INTL   TSTM      61  59  93 S8        29.82F FOG
WICHITA JABRA  LGT RAIN  61  58  90 SE8       29.81F
WICHITA MCCONL TSTM      61  59  94 S9        29.82F
WINFIELD       CLOUDY    64  59  83 SE14      29.82F
$$

KSZ007>012-019>026-033>040-048>060-102>105-200500-
NORTHEAST KANSAS

CITY           SKY/WX    TMP DP  RH WIND       PRES   REMARKS
CONCORDIA      PTCLDY    57  54  89 S13       29.82R
EMPORIA        CLOUDY    58  54  86 SE12      29.85F
LAWRENCE       CLEAR     56  51  84 E7        29.89F
MANHATTAN      PTCLDY    57  53  86 E3        29.84F
MARYSVILLE     PTCLDY    59  54  82 S8        29.85S
OLATHE IND     CLEAR     61  52  72 SE9       29.91F
OLATHE EXE     CLEAR     59  52  77 S5        29.90F
SALINA         CLOUDY    56  52  86 CALM      29.81S
TOPEKA BILLARD PTCLDY    57  52  83 E3        29.87F
TOPEKA FORBES  PTCLDY    59  53  80 SE8       29.87F
$$




USA.gov is the U.S. government's official web portal to all federal, state and local government web resources and services.